GFSSGP_prec_cloud_231.txt.gz
Cloud_Cover
26 74 72 100 100 92 13 0 0 0 3 1 0 0 0 0 0 0 1 86 0 0 0 0 0 4 4 0 0 0 3 97 18 2 0 3 0 0 0 1 5 36 0 8 77 50 1 0 8
80 89 100 98 100 100 65 5 5 4 4 0 0 0 0 0 0 72 99 54 0 6 23 15 0 0 0 0 0 2 4 22 26 5 0 0 1 1 30 84 100 15 82 100 41 41 52 1 0
77 66 80 100 100 100 100 5 5 26 5 5 3 1 4 0 27 100 98 25 22 56 14 0 0 0 9 0 0 0 3 9 11 1 0 0 1 17 7 19 12 6 4 0 0 0 0 0 0
97 95 93 100 100 100 100 6 5 13 11 5 5 0 4 0 22 38 100 12 85 76 3 0 0 0 2 0 0 4 34 30 18 0 0 2 0 0 0 0 0 0 1 0 0 0 0 0 0
95 100 96 100 100 100 100 73 98 6 23 5 5 6 4 5 11 71 47 53 100 66 22 9 0 0 0 0 0 8 25 15 2 0 37 8 16 4 0 0 0 0 0 0 0 0 0 0 0
100 100 100 100 100 100 100 100 100 100 6 5 5 14 5 15 100 100 40 57 100 87 24 2 5 17 15 22 24 79 100 49 0 0 2 6 1 0 0 0 0 0 0 0 0 0 0 0 0
84 100 100 100 100 100 100 100 100 100 98 53 5 9 12 96 92 100 22 3 100 91 23 0 1 14 19 8 17 38 1 0 0 1 0 0 0 0 0 0 0 0 0 0 0 0 0 0 0
90 100 100 100 100 100 100 100 100 100 100 100 6 9 5 53 90 98 5 2 100 95 31 19 0 0 0 0 0 0 0 0 0 0 0 0 0 0 0 0 0 0 0 0 0 0 0 0 0
41 41 100 100 100 100 100 100 100 100 100 100 100 51 7 5 100 100 42 60 100 98 49 29 19 4 1 5 32 0 1 0 0 0 0 0 0 0 0 0 0 0 0 0 0 0 0 0 56
5 9 100 100 100 100 100 100 100 100 100 100 100 100 93 94 100 100 100 100 100 100 97 35 29 11 5 10 56 28 1 0 0 0 0 0 0 0 0 34 0 0 26 0 0 3 5 2 5
9 17 100 100 100 100 100 100 100 100 100 100 100 100 100 100 100 100 100 100 100 100 100 74 17 5 3 5 6 4 0 0 0 0 0 5 5 0 0 3 5 5 55 0 1 0 3 0 2
37 9 100 100 98 100 100 99 100 100 100 100 100 100 100 100 100 100 100 100 100 100 100 100 11 47 49 6 5 16 14 5 0 0 33 92 60 5 8 49 62 5 100 91 61 5 7 4 0
55 55 40 100 100 100 68 66 100 100 100 100 100 100 100 100 100 100 100 100 100 100 100 100 63 83 54 64 56 23 82 18 5 5 49 98 100 95 100 57 37 96 100 99 88 6 19 10 49
64 99 55 100 100 100 45 45 100 100 100 100 100 100 100 100 100 100 100 100 100 100 100 100 96 40 50 53 96 78 87 96 74 33 63 73 66 93 60 17 88 100 98 100 100 36 52 28 100
100 76 59 65 99 9 5 6 18 100 100 100 100 100 100 100 100 100 100 100 100 100 100 100 100 100 74 100 100 100 99 99 82 90 100 100 100 100 100 100 100 100 100 98 100 83 27 15 5
100 99 100 94 73 19 59 4 5 88 100 100 100 100 100 100 100 100 100 100 100 100 100 100 100 100 100 99 38 81 98 100 100 100 100 100 100 99 100 100 100 100 100 92 100 100 74 28 5
100 91 97 100 100 51 63 6 2 5 87 99 100 100 100 100 100 100 100 100 100 100 100 100 100 100 100 100 100 100 100 100 100 100 100 100 100 100 100 100 100 100 100 100 100 100 94 94 87
42 73 79 82 82 100 54 63 59 2 26 100 100 100 100 100 100 100 100 100 100 100 100 100 100 100 100 100 100 100 100 100 100 100 100 100 100 100 100 100 100 100 100 100 100 100 100 98 100
31 17 77 98 99 100 100 66 100 45 63 55 100 100 100 100 100 82 100 100 100 100 100 100 100 100 100 100 100 100 100 100 100 100 100 100 100 100 100 100 100 100 100 100 100 100 100 100 100
100 100 23 72 59 100 93 100 100 99 7 5 100 100 100 100 100 100 100 100 100 100 100 100 100 100 100 100 100 100 100 100 100 100 100 100 100 100 100 100 100 100 100 100 100 100 100 100 100
20 96 100 100 99 100 100 100 99 97 75 64 52 99 100 100 100 87 100 100 100 100 100 100 100 100 100 100 100 100 100 100 100 100 100 100 100 100 100 100 100 100 100 100 100 100 100 100 100
22 64 65 100 100 59 89 77 100 75 100 8 5 94 90 100 100 100 90 100 100 97 100 100 100 100 100 100 100 100 100 100 100 100 100 100 100 100 100 100 100 100 100 100 100 100 100 95 100
3 84 100 100 100 100 100 100 9 84 100 100 29 76 91 100 100 100 100 100 100 100 100 100 100 100 100 100 100 100 100 100 100 100 100 100 100 100 100 100 100 100 100 100 100 75 74 48 99
6 71 100 100 100 100 89 100 7 34 34 100 99 100 100 100 100 100 100 100 100 100 100 100 100 100 100 100 100 100 100 100 100 100 100 100 100 100 100 100 100 100 100 100 98 95 100 100 100
31 100 100 100 100 100 100 87 1 50 100 100 54 79 100 100 100 100 100 100 100 100 100 100 100 100 100 100 100 100 100 100 100 100 100 100 100 100 100 100 100 100 100 100 100 100 100 100 100
100 100 100 100 100 84 100 100 5 46 100 100 83 51 100 100 100 100 100 100 100 100 100 100 100 100 100 100 100 100 100 100 100 100 100 100 100 100 100 100 100 100 93 94 100 100 99 100 100
100 100 100 100 92 100 100 71 19 100 87 42 97 100 100 100 100 100 100 100 100 100 100 100 100 100 100 100 100 100 100 100 100 100 100 100 100 100 100 100 100 100 100 100 100 100 100 100 100
100 100 100 100 88 47 23 98 100 100 100 100 100 100 100 100 100 100 100 100 100 100 100 100 100 100 100 100 100 100 100 100 100 100 100 100 100 100 100 100 100 100 100 100 100 100 100 100 100
100 100 100 99 100 100 100 100 100 100 100 100 100 100 100 100 100 100 100 100 100 100 100 100 100 100 100 100 100 100 100 100 100 100 100 100 100 100 100 100 100 100 100 100 100 100 100 100 100
100 100 100 100 100 100 100 100 100 100 100 100 100 100 100 100 100 100 100 100 100 100 100 100 100 100 100 100 100 100 100 100 100 100 100 100 100 100 100 100 100 100 100 100 100 100 100 100 100

GFSSGP_prec_cloud_234.txt.gz
Cloud_Cover
38 11 96 42 97 100 78 1 0 0 0 0 0 0 0 0 0 0 1 28 29 0 0 0 0 0 0 0 2 10 29 99 4 0 0 6 4 13 9 0 58 37 70 100 100 55 0 0 4
72 54 94 100 100 100 100 13 2 0 0 0 0 0 0 0 0 1 67 78 6 0 2 0 0 0 0 0 0 0 29 93 5 0 0 0 5 6 14 100 59 100 92 21 2 17 38 1 6
47 15 82 100 100 100 100 100 100 4 4 5 0 0 0 0 0 0 54 49 0 0 43 0 0 0 0 0 0 0 34 50 6 6 0 0 89 52 19 44 26 58 2 0 0 0 0 0 0
100 32 76 100 100 100 100 100 100 49 5 4 5 0 0 0 0 0 87 14 0 0 25 39 0 1 0 0 0 44 31 0 0 0 0 0 1 1 5 9 13 3 7 5 2 3 1 6 0
100 71 80 100 100 100 100 98 100 100 15 5 5 3 0 0 1 46 23 0 5 5 13 27 0 0 0 0 0 6 8 0 0 0 0 14 13 0 0 0 0 0 0 0 0 0 0 0 0
100 100 100 100 100 100 100 100 100 100 20 5 5 4 4 0 8 89 5 4 100 2 15 48 37 0 0 0 0 36 89 0 0 7 34 17 6 0 0 0 0 0 0 0 0 0 0 0 0
100 100 100 100 100 100 100 100 100 100 80 24 5 5 5 1 21 68 2 0 100 7 4 78 76 45 4 1 72 94 77 0 0 0 0 4 0 0 0 0 0 0 0 0 0 0 0 0 0
100 100 100 100 100 100 100 100 100 100 100 88 90 6 24 7 90 79 30 2 100 26 4 31 98 70 75 63 50 40 0 0 0 0 0 0 0 0 0 0 0 0 0 0 0 0 0 0 0
100 100 100 100 100 100 100 100 100 100 100 100 100 100 100 95 83 86 45 16 100 94 8 3 20 71 97 97 57 6 9 1 3 0 0 0 0 0 4 3 0 0 0 0 0 0 0 0 0
29 98 100 100 100 100 100 100 100 100 100 100 100 100 100 100 100 73 5 6 100 100 54 5 0 2 3 6 1 2 3 0 0 0 0 0 0 2 0 34 3 1 19 5 0 0 0 0 4
49 95 100 100 38 100 100 100 100 100 100 100 100 100 100 100 100 100 84 33 62 68 97 46 5 5 2 2 5 5 5 4 3 0 0 0 1 5 8 18 45 61 66 30 8 4 0 2 5
67 93 100 100 100 38 20 90 100 100 100 100 100 88 100 100 100 100 100 100 100 72 100 91 16 5 5 5 5 11 5 5 5 5 5 5 4 16 27 42 57 81 94 22 5 5 5 7 54
88 84 80 100 9 78 7 22 73 100 100 100 100 98 100 100 100 100 100 100 100 100 100 92 30 76 25 6 8 18 44 6 26 66 52 64 25 32 45 45 68 95 83 72 52 13 9 28 100
100 100 95 76 60 40 6 7 78 100 100 100 100 100 100 100 100 100 100 100 100 100 100 100 93 88 100 100 84 45 5 68 83 83 66 34 84 100 100 100 100 99 88 100 63 64 81 100 100
100 100 89 71 96 69 77 18 5 100 100 100 100 100 100 100 100 100 100 100 100 100 100 100 100 100 86 100 100 100 45 58 81 79 82 100 100 100 100 100 100 100 100 100 88 99 78 27 9
100 100 100 100 100 59 56 42 6 67 100 100 100 100 100 100 96 100 100 100 100 100 100 100 100 100 100 98 97 100 100 100 100 100 100 100 100 100 100 100 100 100 100 100 100 100 100 100 100
48 100 100 100 100 100 50 37 15 39 100 100 100 100 100 100 100 100 100 100 100 100 100 100 100 100 100 100 100 100 100 100 100 100 100 100 100 100 100 100 100 98 90 100 45 99 100 100 100
5 5 23 70 100 100 98 16 5 82 54 30 76 69 73 100 100 100 100 100 100 100 100 100 100 100 100 100 100 100 81 99 100 100 100 100 100 100 100 100 100 96 96 74 98 100 100 100 100
5 69 89 52 74 100 100 100 100 100 45 61 30 5 22 100 100 100 100 100 81 100 100 100 100 100 100 100 100 100 100 100 100 100 100 100 100 100 100 100 100 100 100 100 100 100 100 100 100
5 37 66 64 4 22 99 100 100 100 100 46 26 5 5 60 100 100 100 100 100 100 100 100 100 100 100 100 100 85 100 100 100 100 100 100 100 100 100 100 100 100 100 100 100 100 100 100 100
0 2 5 39 21 34 67 30 85 100 100 100 5 17 6 14 100 99 100 100 100 100 100 100 100 100 100 100 100 100 100 100 100 100 100 100 100 100 100 100 100 100 100 100 100 100 100 100 97
92 1 5 5 60 99 56 18 0 4 33 50 98 8 43 36 100 99 98 99 100 100 100 100 100 100 100 100 100 100 100 100 100 100 100 100 100 100 100 100 100 100 100 100 100 100 99 94 91
8 5 5 5 16 83 23 100 7 4 1 4 3 5 5 88 80 100 100 100 100 89 100 100 100 100 100 100 100 100 100 100 100 100 100 100 100 100 100 100 100 100 100 100 100 100 99 100 100
79 40 24 12 6 98 5 68 2 35 1 4 5 1 59 51 69 100 98 100 100 81 92 100 100 100 100 100 100 100 100 100 100 100 100 100 100 100 100 100 100 100 100 100 100 100 98 100 100
37 96 91 79 86 38 2 36 0 0 0 1 4 1 18 35 100 100 100 100 100 100 100 100 100 100 100 100 100 100 100 100 100 100 100 100 100 100 100 100 100 100 100 100 100 100 100 100 100
77 100 62 83 18 82 80 95 28 0 3 1 5 37 10 5 99 100 100 100 100 100 100 100 100 100 100 100 100 100 100 100 100 100 100 100 100 100 100 100 100 100 100 100 100 100 100 100 100
100 100 100 100 5 88 31 21 100 4 5 9 0 96 7 54 99 88 100 100 100 100 100 100 100 100 100 100 100 100 100 100 100 100 100 100 100 100 100 100 100 100 100 100 100 100 100 100 100
100 100 99 100 97 100 9 18 79 60 24 96 22 85 17 97 100 100 100 100 100 100 100 100 100 100 100 100 100 100 100 100 100 100 100 100 100 100 100 100 100 100 100 100 100 100 100 100 100
100 100 100 100 99 91 61 13 100 100 100 92 95 100 100 100 100 100 100 100 100 100 100 100 100 100 100 100 100 100 100 100 100 100 100 100 100 100 100 100 100 100 100 100 100 100 100 100 100
100 100 100 100 100 100 70 98 100 100 100 100 100 100 100 100 100 100 100 100 100 100 100 100 100 100 100 100 100 100 100 100 100 100 100 100 100 100 100 100 100 100 100 100 100 100 100 100 100

GFSSGP_prec_cloud_237.txt.gz
Cloud_Cover
52 85 100 100 97 84 33 77 47 28 0 0 0 0 0 0 0 25 0 0 2 0 0 0 0 0 0 3 0 27 100 43 0 1 4 100 94 44 3 2 35 100 100 100 100 50 28 52 1
99 100 100 100 100 100 57 70 30 31 27 0 0 0 0 0 0 0 0 0 3 0 0 0 0 0 0 0 0 4 54 7 0 0 26 64 12 33 32 98 100 94 70 96 1 10 0 0 0
98 77 100 100 100 100 60 77 100 89 3 0 0 0 0 0 0 0 0 0 0 0 0 1 0 0 0 0 4 3 4 4 5 0 0 71 53 39 99 97 100 77 44 6 0 0 0 0 0
99 79 100 100 100 100 100 100 100 100 33 5 2 0 0 0 0 0 0 2 0 0 0 40 0 0 0 0 0 0 12 0 6 1 31 99 19 1 2 5 10 9 6 65 39 6 2 0 0
87 94 100 100 100 100 100 100 100 100 100 12 5 9 0 0 0 0 0 0 0 0 1 0 0 0 0 0 0 13 15 0 0 1 1 30 6 11 9 0 3 2 0 0 1 1 6 1 0
100 100 100 100 100 100 100 100 100 100 100 100 88 5 1 0 0 0 8 0 0 0 9 22 31 0 0 0 0 23 14 0 0 0 17 85 10 0 0 0 0 0 0 0 0 0 2 0 0
100 100 100 100 100 100 100 100 100 100 99 100 100 99 11 5 0 4 0 5 0 7 25 78 63 48 33 1 1 79 100 0 0 17 94 1 0 0 0 0 0 0 0 0 0 0 0 0 0
100 100 100 100 100 100 100 100 100 100 100 100 100 100 42 6 3 0 0 16 0 0 5 100 99 64 59 15 16 100 100 8 0 0 0 0 0 0 0 0 0 0 0 0 0 0 0 0 0
99 100 100 100 100 100 100 100 100 100 100 100 100 100 99 43 14 5 4 21 22 0 0 32 97 100 89 60 100 100 100 1 4 0 0 20 0 0 5 1 0 0 0 0 0 0 0 0 0
100 81 100 100 100 100 100 100 100 100 100 100 100 100 100 64 33 88 71 5 99 4 0 1 66 73 59 100 100 100 12 0 0 0 0 0 0 0 7 31 0 2 5 5 5 5 5 3 0
100 77 100 100 100 100 100 100 100 100 100 100 100 100 100 100 100 100 100 100 16 58 5 1 20 92 100 100 100 9 0 0 0 0 4 4 0 0 4 4 2 3 62 94 70 17 3 0 0
100 88 100 100 100 100 100 100 80 100 100 100 100 99 100 100 100 100 100 100 100 91 42 14 32 8 17 3 0 1 0 0 2 7 5 5 5 9 19 96 95 63 27 21 37 79 5 7 94
46 96 100 100 100 100 100 98 60 100 100 100 100 100 100 100 100 100 100 51 100 100 100 97 72 16 65 41 6 11 5 1 0 13 5 5 5 17 95 100 100 98 99 97 100 94 100 94 15
98 68 100 92 100 100 100 73 51 100 100 100 100 100 100 100 96 100 100 100 98 73 100 100 100 80 94 98 70 36 5 27 20 19 13 12 7 98 100 94 97 100 100 100 100 100 100 100 83
100 100 100 99 100 95 100 64 66 99 99 100 100 100 100 100 100 100 100 100 100 100 100 100 100 100 100 100 100 98 89 60 99 100 97 94 73 94 100 100 100 86 69 100 100 100 100 100 100
100 100 100 100 100 100 73 50 7 20 94 78 100 100 100 100 100 100 100 100 100 100 100 100 100 100 59 31 91 100 100 100 100 100 100 100 100 100 100 100 100 84 79 97 99 45 33 98 100
0 53 100 100 100 100 94 45 5 5 59 49 19 93 87 100 100 100 100 100 100 100 100 100 100 100 100 100 76 100 100 100 100 93 93 100 100 100 100 100 100 100 100 100 84 98 89 100 100
0 4 5 74 100 100 100 80 7 8 6 18 36 8 24 100 100 100 100 100 100 100 100 100 100 100 100 100 100 100 100 99 75 100 100 100 100 100 100 100 100 100 99 86 81 80 100 100 100
1 2 4 5 35 71 98 100 100 87 36 99 99 5 17 83 100 100 100 100 100 100 100 100 100 100 100 100 100 100 100 100 90 94 100 100 100 100 100 100 100 100 100 100 100 100 100 100 100
5 17 3 0 4 4 5 59 100 7 98 18 8 21 36 100 83 100 100 100 100 100 100 100 100 100 100 100 100 100 100 100 100 100 100 100 100 100 100 100 100 100 100 100 100 100 100 100 100
53 17 32 5 3 5 18 3 5 96 18 5 82 70 6 99 80 100 100 100 100 100 100 100 100 100 100 100 100 100 100 100 100 100 100 100 100 100 100 100 100 100 100 100 100 100 100 100 100
94 54 83 43 28 4 4 19 3 26 39 44 16 71 78 6 100 33 95 100 100 100 100 100 100 100 100 100 100 100 100 100 100 100 100 100 100 100 100 100 100 100 100 100 100 100 100 100 100
9 56 84 96 45 21 4 65 0 3 0 0 40 99 100 40 10 60 81 100 98 100 100 100 100 100 100 100 100 100 100 100 100 100 100 100 100 100 100 100 100 100 100 100 100 100 100 96 100
64 58 27 24 72 86 49 83 0 0 0 5 4 8 93 100 44 22 78 96 98 100 99 100 100 100 100 100 100 100 100 100 100 100 100 100 100 100 100 100 100 100 100 100 100 100 100 100 100
98 100 91 63 96 24 0 94 0 0 0 0 0 0 0 26 96 68 60 100 100 100 100 100 94 100 100 100 100 100 100 100 100 100 100 100 100 100 100 100 100 100 100 100 100 100 100 100 100
42 100 99 100 97 47 44 83 0 2 1 0 0 0 0 5 1 57 100 100 81 54 100 100 100 100 100 100 100 100 100 100 100 100 100 100 100 100 100 100 100 100 100 100 100 100 100 100 100
86 98 87 100 6 100 8 0 0 1 0 5 0 0 0 0 4 10 95 100 100 100 100 100 100 100 100 100 100 100 100 100 100 100 100 100 100 100 100 100 100 100 100 100 100 100 100 100 100
99 100 100 100 100 86 60 5 5 5 24 17 4 4 5 0 6 36 100 100 100 100 100 100 100 100 100 100 100 100 100 100 100 100 100 100 100 100 100 100 100 100 100 100 100 100 100 100 100
100 100 100 100 93 100 99 83 98 100 100 88 86 53 7 42 12 100 100 100 100 100 100 100 100 100 100 100 100 100 100 100 100 100 100 100 100 100 100 100 100 100 100 100 100 100 100 100 100
100 100 100 100 100 100 100 89 99 100 100 100 100 100 98 100 100 100 100 100 100 100 100 100 100 100 100 100 100 100 100 100 100 100 100 100 100 100 100 100 100 100 100 100 100 100 100 100 100

GFSSGP_prec_cloud_240.txt.gz
Cloud_Cover
94 94 100 100 100 91 12 5 5 23 5 2 3 0 0 0 0 0 0 0 0 0 2 0 0 0 0 6 43 97 100 4 0 2 88 100 100 100 69 51 93 100 95 100 6 45 72 0 0
59 75 100 100 100 100 58 14 100 22 13 1 0 0 0 0 0 0 0 0 0 0 0 0 0 0 0 0 0 1 88 1 0 0 51 100 100 67 100 100 100 71 85 5 0 0 0 0 0
98 60 96 100 100 100 98 66 100 58 8 35 3 1 0 0 0 0 0 0 0 0 0 0 0 0 0 0 0 1 0 0 0 23 0 86 66 100 100 98 73 100 97 3 0 0 0 0 0
81 88 70 100 100 100 82 96 36 34 95 48 99 24 0 0 0 0 0 0 0 0 0 0 0 0 0 0 3 12 5 2 3 12 54 74 100 99 77 51 7 88 100 75 31 3 0 0 0
62 65 68 100 100 100 100 100 100 81 45 96 100 100 12 1 0 0 0 0 0 0 0 0 0 0 0 0 8 14 0 0 0 97 71 88 10 0 0 2 7 11 7 2 6 9 5 0 0
100 74 94 100 100 100 100 100 100 100 98 99 100 100 100 8 4 0 0 0 0 0 0 0 19 0 0 0 0 8 24 0 0 82 85 0 0 0 0 1 0 0 0 10 2 0 0 0 0
100 100 100 100 100 100 100 100 100 100 100 56 77 100 100 100 38 5 2 0 0 16 0 0 0 2 11 0 0 33 100 7 1 93 36 99 0 0 1 0 0 0 3 6 0 0 0 0 0
100 100 100 100 100 100 100 100 100 100 99 68 100 100 100 100 100 100 7 0 0 4 0 76 52 49 7 10 3 18 100 63 0 1 99 0 0 0 0 0 0 0 0 0 0 0 0 0 0
100 100 100 100 100 100 100 100 100 100 100 100 100 40 100 94 100 100 100 2 2 3 0 76 98 30 36 39 51 83 100 97 0 0 0 0 0 0 0 0 0 0 0 0 0 3 2 4 0
100 100 100 100 100 100 100 100 100 100 100 100 100 98 100 100 100 100 100 83 4 3 25 8 99 100 100 71 94 92 100 94 0 0 0 0 0 0 0 0 0 0 0 0 0 0 1 5 4
99 98 100 100 100 100 100 100 100 91 98 100 100 100 94 100 100 100 100 100 76 5 9 5 57 100 89 50 90 100 100 94 0 0 0 0 0 0 0 2 6 1 40 95 15 7 11 16 9
100 57 100 100 100 100 100 100 100 100 100 79 100 100 100 100 97 100 100 100 100 100 50 36 57 100 50 65 100 100 100 35 0 0 0 0 0 0 0 8 7 44 58 85 63 35 7 10 48
100 100 99 100 100 100 100 100 100 100 100 88 100 100 100 100 93 55 99 100 100 100 100 100 100 100 100 100 100 100 97 17 5 1 2 0 0 0 79 100 100 23 97 5 10 14 58 100 100
98 100 100 100 100 100 88 100 100 100 100 100 100 97 93 100 100 80 93 100 100 100 100 100 84 100 100 100 89 71 89 100 22 4 5 66 67 85 100 100 100 100 98 70 99 100 100 100 100
98 52 99 100 100 100 84 58 100 100 100 100 100 100 100 100 100 100 100 100 100 100 100 100 100 100 96 100 97 71 96 80 90 82 92 95 62 100 100 100 100 100 100 100 99 57 100 100 100
100 100 30 68 86 99 100 53 88 100 100 100 100 100 100 100 100 100 100 28 100 99 100 100 100 100 100 100 100 92 100 100 100 100 100 100 100 100 100 100 100 100 100 100 100 100 100 100 100
3 94 100 75 75 5 7 84 20 6 19 95 100 100 100 100 100 100 100 100 85 88 100 100 100 100 100 100 100 100 100 100 55 93 100 100 100 100 100 100 100 100 100 100 100 100 100 100 100
2 0 1 53 97 7 6 4 5 13 4 5 100 100 100 100 100 100 100 100 100 82 100 90 100 100 100 100 100 100 100 100 100 100 100 95 100 100 100 100 100 100 100 100 99 100 100 100 100
1 5 5 2 0 1 19 5 5 5 5 5 15 7 72 100 48 59 100 100 100 100 100 100 99 100 100 100 100 100 100 100 100 100 100 100 100 100 100 100 100 100 100 100 100 100 100 100 100
5 37 5 5 5 3 0 3 5 53 82 8 5 5 8 64 100 65 20 100 100 100 100 100 100 100 100 100 100 99 95 88 100 100 100 100 100 100 100 100 100 100 100 100 100 100 100 100 100
5 1 5 10 5 5 4 0 0 1 21 100 5 8 42 39 100 100 53 14 58 100 100 100 100 100 100 100 100 100 100 100 98 100 100 100 100 100 100 100 100 100 100 100 100 100 100 100 100
5 0 31 5 40 55 3 18 0 0 0 26 100 81 62 19 93 100 84 54 5 78 100 100 100 100 100 100 100 100 100 100 100 100 100 100 100 100 100 100 100 100 100 100 100 100 100 100 100
5 8 5 34 21 30 11 26 0 0 0 0 1 37 100 96 11 76 100 66 25 5 98 100 100 100 100 100 100 100 100 100 100 100 100 100 100 100 100 100 100 100 100 100 100 100 100 100 100
60 27 5 4 54 94 0 28 0 0 0 0 0 0 3 95 100 89 15 83 100 54 95 100 100 100 100 100 100 100 100 100 100 100 100 100 100 100 100 100 100 100 100 100 100 100 100 100 100
5 14 62 12 94 24 23 96 0 0 0 0 0 0 2 6 18 97 28 16 97 99 94 100 100 100 100 100 100 100 100 100 100 100 100 100 100 100 100 100 100 100 100 100 100 100 100 100 100
5 75 100 98 5 3 3 4 0 0 1 5 15 0 0 7 91 5 7 16 89 56 33 100 100 100 100 94 100 100 100 100 100 100 100 100 100 100 100 100 100 100 100 100 100 100 100 100 100
62 96 96 98 75 99 5 1 6 42 87 6 1 5 2 1 6 34 3 0 5 24 34 97 100 100 100 92 100 100 100 100 100 100 100 100 100 100 100 100 100 100 100 100 100 100 100 100 100
100 100 95 100 92 46 5 16 57 82 87 82 87 63 24 5 18 36 5 41 2 22 100 100 100 100 100 100 100 100 100 100 100 100 100 100 100 100 100 100 100 100 100 100 100 100 100 100 100
100 100 100 100 100 100 91 100 100 100 100 100 100 100 100 6 93 33 6 83 100 100 100 100 100 100 100 100 100 100 100 100 100 100 100 100 100 100 100 100 100 100 100 100 100 100 100 100 100
100 100 100 100 100 100 100 90 99 100 100 100 100 100 100 100 100 100 100 100 100 100 100 100 100 100 100 100 100 100 100 100 100 100 100 100 100 100 100 100 100 100 100 100 100 100 100 100 100